Погода в Лимане

Погода в Лимане : погода сейчас, прогноз погоды и архив. Всё, что Вы хотите узнать о погоде в Лимане!

Хотите узнать прогноз погоды в Лимане? Тогда Вам сюда: Погода в Лимане

Поиск расширенной информации на нашем сайте:

Другие новости

Новости СМИ2

Главная страница сайта

Новости сайта

03.07.2017

Напоминаем, что на нашем специализированном сайте Метеоцентр.Азия вы можете получить высокодетализированные автоматические прогнозы погоды по пунктам России, СНГ и мира в авиационном формате (включающие направление и скорость ветра, видимость, явления погоды, количество и форму облачности, нижнюю и верхнюю границу облачности).


Погода в Лимане - сегодня

Время (UTC), дата Ветер
(°,м/с) 
Видим.   Явления Облачность Т
(°С)
Тd
(°С)
f(%) Тe
(°С)
Pmin
(гПа)
dP
(гПа)
Po
(мм)
O2
(г/м3)
Тmin Tmax R s Состояние
почвы
18 21.06.18 тихо ()   20000 м    3/3 600 м 
[Sc]
+27.4 +16.8 52 +39  1009.8  0.6  759  274           
21 21.06.18 350 (С) 20000 м    ясно 
+23.1 +17.2 69 +35  1010.2  0.4  759  278           
00 22.06.18 350 (С) 20000 м    ясно 
+21.2 +13.3 61 +27  1010.5  0.3  759  281           
03 22.06.18 030 (СВ) 20000 м    ясно 
+23.4 +11.6 47 +26  1011.5  760  280  +19.6        сухая 
06 22.06.18 040 (СВ) 20000 м    ясно 
+31.3 +7.3 22 +31  1011.7  0.1  760  274           
09 22.06.18 040 (СВ) 20000 м    ясно 
+33.9 +6.3 18 +34  1011.7  760  271           
12 22.06.18 030 (СВ) 20000 м    ясно 
+35 +5.9 17 +35  1010.5  -1.2  759  270           
15 22.06.18 100 (В) 20000 м    ясно 
+31.4 +9.7 26 +32  1009.6  -0.8  759  272    +35.3       
18 22.06.18 140 (ЮВ) 20000 м    ясно 
+24.8 +12.9 48 +30  1010.7  1.1  759  278           
00 23.06.18 360 (С) 20000 м    ясно 
+18.1 +13.1 73 +25  1010.4  -0.3  759  284           
03 23.06.18 тихо ()   20000 м    ясно 
+23 +15.3 62 +32  1010.9  0.4  760  279  +17        сухая 
06 23.06.18 040 (СВ) 20000 м    ясно 
+31.7 +7.1 22 +32  1011.1  0.2  760  273           
09 23.06.18 060 (СВ) 20000 м    ясно 
+33.3 +8.3 21 +33  1010.5  -0.7  759  271           
12 23.06.18 080 (В) 20000 м    1/1 600 м 
[Cu hum]
+32.2 +12.4 30 +36  1009.9  -0.6  759  271           
15 23.06.18 100 (В) 20000 м    ясно 
+29.1 +14 40 +36  1010  0.2  759  274    +34.5       
18 23.06.18 110 (В) 20000 м    ясно 
+23.8 +15.9 61 +34  1010.9  0.9  760  278           
21 23.06.18 050 (СВ) 20000 м    1/0 верхняя 
[Ci fib]
+18.1 +15.6 85 +29  1010.4  -0.5  759  284           
00 24.06.18 070 (В) 4000 м  дымка  4/0 верхняя 
[Ci fib]
+17.7 +16.5 93 +30  1010.6  0.3  759  284           
03 24.06.18 070 (В) 20000 м    4/0 верхняя 
[Ci fib]
+21.3 +14.5 65 +29  1012.2  1.5  761  281  +17.4        сухая 
06 24.06.18 110 (В) 20000 м    4/0 верхняя 
[Ci]
+29.2 +10.7 32 +31  1012.4  0.2  761  275           
09 24.06.18 360 (С) 20000 м    10/0 средняя, верхняя 
[Ac cast|Cs]
+32.3 +9 24 +32  1012.4  -0.1  761  273           
12 24.06.18 010 (С) 20000 м    4/0 средняя, верхняя 
[Ac cast|Ci sp]
+34.9 +8.8 20 +35  1011.9  -0.5  760  270           
15 24.06.18 090 (В) 20000 м    9/0 средняя, верхняя 
[Ac trans|Cs]
+32.1 +6.8 21 +32  1011.9  760  273    +35.2       
18 24.06.18 180 (Ю) 20000 м    9/0 средняя, верхняя 
[Ac trans|Cs]
+25.5 +16 56 +36  1013.3  1.5  761  277           
21 24.06.18 150 (ЮВ) 20000 м    4/0 верхняя 
[Ci fib]
+22.2 +16.5 70 +33  1013.3  761  280           
Время (UTC), дата Ветер
(°,м/с) 
Видим.   Явления Облачность Т
(°С)
Тd
(°С)
f(%) Тe
(°С)
Pmin
(гПа)
dP
(гПа)
Po
(мм)
O2
(г/м3)
Тmin Tmax R s Состояние
почвы

Для получения пояснительной информации подведите курсор к названию столбца.

ПОГОДА в Лимане - архив

Всё, что Вы хотите узнать о погоде в Лимане - удобно и подробно!

Выберите нужную дату (начиная с 1 января 2015* года) и нажмите кнопку "Найти".
Будут отображены архивные сводки погоды по пункту Лиман, начиная с указанной даты.


Отображать данные в формате CSV (для использования в таблицах Excel)


Внимание! Наш архив погоды предназначен исключительно для личного некоммерческого использования в познавательных целях. Если Вам необходимы официальные справки о состоянии погоды (для производственных, юридических, коммерческих и т.п. целей), обращайтесь в органы Росгидромета.

*Примечание: данная дата относится к архиву по метеостанциям СССР (Россия, СНГ, Балтия).
Архив по метеостанциям Зарубежной Европы и Азии (кроме Китая) хранится 10 дней, по другим регионам земного шара (Китай, Африка, Америка, Австралия, Океания) - 1 день.

Лиман - район местоположения метеостанции


Название, широта, долгота, высота метеостанции:
Лиман 45.8°ш. 47.2°д. -18 м над ур. моря [Российская Федерация]

Дополнительная информация

В oтличие oт бoльшинства пoгoдных сайтoв мы публикуем пoдрoбную метеoинфoрмацию в детальнoм прoфессиoнальнoм фoрмате.

Характеристики температуры и влажнoсти вoздуха измеряются на высoте 2 м в тени вдали oт зданий и деревьев.
Скoрoсть ветра измеряется на высoте 10 м (на урoвне рoста челoвека скoрoсть ветра ниже в 1.5-2 раза). Если метеoстанция нахoдится в гoрoде или в лесу, тo скoрoсть ветра занижена на 2-4 м/с пo сравнению с oткрытым местoм. Скoрoсть ветра над акватoриями крупных рек и oзёр, а также на вершинах хoлмoв на 2-5 м/с выше, чем в oбычных услoвиях.
Атмoсфернoе давление в разных тoчках местнoсти мoжет значительнo oтличаться oт давления на метеoстанции, в зависимoсти oт услoвий рельефа (при пoдъёме на 10 м давление пoнижается примернo на 1 мм рт.ст.).